When you browse on this site, cookies collect data to enhance your experience and personalize the content and advertising you see.
Visit our Privacy Policy to learn more. By continuing to use the site, you agree to this use of cookies and data.
  • In Hungary
  • List of Countries
  • For 7 days
  • Water Temperature
  • Weather Map
  • News
  • Weather Widgets
  • user-avatar
    Login

    Hourly Weather Redociny

    Today, 15 December, Sunday

    Time Temperature Precipitation Wind Pressure Humidity
    00:00 +2°C° 0 mm 6 mps 731 mmHg 78%
    01:00 +2°C° 0 mm 6 mps 731 mmHg 76%
    02:00 +2°C° 0.2 mm 6 mps 731 mmHg 77%
    03:00 +2°C° 0.2 mm 7 mps 732 mmHg 79%
    04:00 +1°C° 0.2 mm 8 mps 732 mmHg 80%
    05:00 +2°C° 0 mm 7 mps 733 mmHg 79%
    06:00 +1°C° 0 mm 6 mps 733 mmHg 78%
    07:00 +1°C° 0 mm 5 mps 734 mmHg 77%
    08:00 +1°C° 0 mm 5 mps 734 mmHg 74%
    09:00 +2°C° 0 mm 6 mps 734 mmHg 71%
    10:00 +2°C° 0 mm 6 mps 735 mmHg 68%
    11:00 +3°C° 0.1 mm 6 mps 734 mmHg 72%
    12:00 +3°C° 0.1 mm 7 mps 734 mmHg 75%
    13:00 +4°C° 0.1 mm 7 mps 733 mmHg 78%
    14:00 +5°C° 0.2 mm 8 mps 733 mmHg 76%
    15:00 +6°C° 0.2 mm 8 mps 733 mmHg 74%
    16:00 +6°C° 0.2 mm 9 mps 733 mmHg 71%
    17:00 +6°C° 0.3 mm 8 mps 734 mmHg 76%
    18:00 +6°C° 0.3 mm 7 mps 735 mmHg 80%
    19:00 +7°C° 0.3 mm 6 mps 735 mmHg 85%
    20:00 +5°C° 0 mm 6 mps 736 mmHg 84%
    21:00 +5°C° 0 mm 6 mps 737 mmHg 84%
    22:00 +6°C° 0 mm 5 mps 738 mmHg 84%
    23:00 +6°C° 0 mm 5 mps 738 mmHg 83%

    Tomorrow, 16 December, Monday

    Time Temperature Precipitation Wind Pressure Humidity
    00:00 +5°C° 0 mm 5 mps 739 mmHg 83%
    01:00 +5°C° 0 mm 4 mps 739 mmHg 82%
    02:00 +5°C° 0 mm 4 mps 739 mmHg 83%
    03:00 +5°C° 0 mm 4 mps 740 mmHg 84%
    04:00 +4°C° 0 mm 4 mps 740 mmHg 85%
    05:00 +4°C° 0 mm 3 mps 740 mmHg 87%
    06:00 +4°C° 0 mm 3 mps 741 mmHg 88%
    07:00 +4°C° 0 mm 2 mps 741 mmHg 90%
    08:00 +5°C° 0 mm 2 mps 741 mmHg 88%
    09:00 +5°C° 0 mm 2 mps 741 mmHg 86%
    10:00 +6°C° 0 mm 2 mps 742 mmHg 84%
    11:00 +6°C° 0 mm 2 mps 741 mmHg 81%
    12:00 +7°C° 0 mm 2 mps 741 mmHg 77%
    13:00 +7°C° 0 mm 2 mps 741 mmHg 73%
    14:00 +7°C° 0 mm 3 mps 741 mmHg 75%
    15:00 +7°C° 0 mm 3 mps 741 mmHg 78%
    16:00 +5°C° 0 mm 3 mps 741 mmHg 80%
    17:00 +5°C° 0 mm 3 mps 741 mmHg 80%
    18:00 +5°C° 0 mm 3 mps 740 mmHg 80%
    19:00 +5°C° 0 mm 4 mps 740 mmHg 80%
    20:00 +5°C° 0 mm 4 mps 740 mmHg 81%
    21:00 +5°C° 0 mm 4 mps 740 mmHg 81%
    22:00 +5°C° 0 mm 4 mps 740 mmHg 82%
    23:00 +5°C° 0 mm 4 mps 740 mmHg 84%

    Day after tomorrow, 17 December, Tuesday

    Time Temperature Precipitation Wind Pressure Humidity
    00:00 +5°C° 0 mm 4 mps 739 mmHg 85%
    01:00 +4°C° 0 mm 3 mps 739 mmHg 87%
    02:00 +4°C° 0 mm 3 mps 739 mmHg 87%
    03:00 +4°C° 0 mm 3 mps 739 mmHg 87%
    04:00 +4°C° 0 mm 3 mps 739 mmHg 88%
    05:00 +4°C° 0 mm 3 mps 739 mmHg 88%
    06:00 +4°C° 0 mm 3 mps 739 mmHg 89%
    07:00 +4°C° 0 mm 4 mps 738 mmHg 90%
    08:00 +5°C° 0 mm 3 mps 739 mmHg 88%
    09:00 +5°C° 0 mm 3 mps 739 mmHg 87%
    10:00 +7°C° 0 mm 3 mps 739 mmHg 85%
    11:00 +7°C° 0 mm 3 mps 739 mmHg 82%
    12:00 +8°C° 0 mm 3 mps 739 mmHg 79%
    13:00 +9°C° 0 mm 3 mps 738 mmHg 75%
    14:00 +8°C° 0 mm 3 mps 738 mmHg 77%
    15:00 +8°C° 0 mm 3 mps 738 mmHg 79%
    16:00 +7°C° 0 mm 3 mps 738 mmHg 81%
    17:00 +7°C° 0 mm 3 mps 738 mmHg 82%
    18:00 +7°C° 0 mm 3 mps 739 mmHg 83%
    19:00 +7°C° 0 mm 3 mps 739 mmHg 83%
    20:00 +7°C° 0 mm 3 mps 739 mmHg 85%
    21:00 +5°C° 0 mm 3 mps 739 mmHg 86%
    22:00 +5°C° 0 mm 3 mps 739 mmHg 88%
    23:00 +5°C° 0 mm 3 mps 739 mmHg 89%

    18 December, Wednesday

    Time Temperature Precipitation Wind Pressure Humidity
    00:00 +5°C° 0 mm 4 mps 739 mmHg 91%
    01:00 +5°C° 0 mm 4 mps 739 mmHg 92%
    02:00 +5°C° 0 mm 4 mps 739 mmHg 93%
    03:00 +4°C° 0 mm 4 mps 739 mmHg 93%
    04:00 +4°C° 0 mm 3 mps 740 mmHg 93%
    05:00 +4°C° 0 mm 3 mps 740 mmHg 93%
    06:00 +4°C° 0 mm 3 mps 740 mmHg 92%
    07:00 +3°C° 0 mm 3 mps 740 mmHg 91%
    08:00 +4°C° 0 mm 3 mps 740 mmHg 90%
    09:00 +5°C° 0 mm 3 mps 740 mmHg 89%
    10:00 +7°C° 0 mm 3 mps 741 mmHg 87%
    11:00 +8°C° 0 mm 3 mps 741 mmHg 84%
    12:00 +9°C° 0 mm 3 mps 741 mmHg 81%
    13:00 +9°C° 0 mm 3 mps 741 mmHg 78%
    14:00 +9°C° 0 mm 3 mps 741 mmHg 82%
    15:00 +8°C° 0 mm 3 mps 741 mmHg 85%
    16:00 +8°C° 0 mm 3 mps 741 mmHg 88%
    17:00 +7°C° 0 mm 3 mps 741 mmHg 89%
    18:00 +7°C° 0 mm 3 mps 741 mmHg 90%
    19:00 +7°C° 0 mm 3 mps 741 mmHg 91%
    20:00 +5°C° 0 mm 3 mps 741 mmHg 91%
    21:00 +6°C° 0 mm 2 mps 741 mmHg 91%
    22:00 +6°C° 0 mm 2 mps 741 mmHg 91%
    23:00 +6°C° 0 mm 2 mps 741 mmHg 91%

    19 December, Thursday

    Time Temperature Precipitation Wind Pressure Humidity
    00:00 +6°C° 0 mm 1 mps 741 mmHg 91%
    01:00 +6°C° 0 mm 1 mps 741 mmHg 90%
    02:00 +7°C° 0 mm 1 mps 741 mmHg 90%
    03:00 +7°C° 0 mm 1 mps 740 mmHg 90%
    04:00 +6°C° 0 mm 2 mps 740 mmHg 90%
    05:00 +6°C° 0 mm 2 mps 740 mmHg 90%
    06:00 +7°C° 0 mm 2 mps 740 mmHg 89%
    07:00 +7°C° 0 mm 2 mps 740 mmHg 89%
    08:00 +7°C° 0 mm 2 mps 740 mmHg 88%
    09:00 +8°C° 0 mm 1 mps 740 mmHg 87%
    10:00 +8°C° 0 mm 1 mps 740 mmHg 86%
    11:00 +9°C° 0 mm 1 mps 740 mmHg 84%
    12:00 +8°C° 0 mm 2 mps 740 mmHg 82%
    13:00 +9°C° 0 mm 2 mps 739 mmHg 80%
    14:00 +8°C° 0 mm 2 mps 739 mmHg 81%
    15:00 +8°C° 0 mm 2 mps 739 mmHg 82%
    16:00 +7°C° 0 mm 2 mps 739 mmHg 83%
    17:00 +8°C° 0 mm 2 mps 739 mmHg 83%
    18:00 +8°C° 0 mm 2 mps 739 mmHg 82%
    19:00 +8°C° 0 mm 3 mps 739 mmHg 81%
    20:00 +8°C° 0.1 mm 3 mps 738 mmHg 82%
    21:00 +7°C° 0.1 mm 3 mps 738 mmHg 83%
    22:00 +7°C° 0.1 mm 3 mps 738 mmHg 84%
    23:00 +6°C° 0.2 mm 4 mps 738 mmHg 85%

    20 December, Friday

    Time Temperature Precipitation Wind Pressure Humidity
    00:00 +6°C° 0.2 mm 4 mps 737 mmHg 86%
    01:00 +6°C° 0.2 mm 4 mps 737 mmHg 87%
    02:00 +6°C° 0.3 mm 4 mps 736 mmHg 87%
    03:00 +6°C° 0.3 mm 4 mps 736 mmHg 86%
    04:00 +6°C° 0.3 mm 4 mps 736 mmHg 85%
    05:00 +5°C° 0 mm 3 mps 735 mmHg 86%
    06:00 +5°C° 0 mm 3 mps 735 mmHg 86%
    07:00 +4°C° 0 mm 3 mps 735 mmHg 87%
    08:00 +5°C° 0 mm 3 mps 735 mmHg 85%
    09:00 +5°C° 0 mm 3 mps 735 mmHg 83%
    10:00 +7°C° 0 mm 3 mps 735 mmHg 81%
    11:00 +6°C° 0 mm 4 mps 734 mmHg 79%
    12:00 +7°C° 0 mm 4 mps 734 mmHg 77%
    13:00 +7°C° 0 mm 4 mps 734 mmHg 74%
    14:00 +7°C° 0 mm 4 mps 733 mmHg 75%
    15:00 +6°C° 0 mm 4 mps 733 mmHg 76%
    16:00 +6°C° 0 mm 4 mps 733 mmHg 77%
    17:00 +6°C° 0 mm 4 mps 732 mmHg 79%
    18:00 +5°C° 0 mm 4 mps 732 mmHg 82%
    19:00 +5°C° 0 mm 5 mps 732 mmHg 84%
    20:00 +5°C° 0 mm 5 mps 732 mmHg 86%
    21:00 +3°C° 0 mm 5 mps 731 mmHg 88%
    22:00 +3°C° 0 mm 5 mps 731 mmHg 90%
    23:00 +4°C° 0 mm 6 mps 731 mmHg 89%
    Show more